This is the latest recevied weather packets stored in our database for station/object N2MLB-WX. If no packets are shown the sender has not sent any weather packets the latest 10 day(s).
| Time | Temp. | Humidity | Pressure | Rain* | Wind** | Luminosity | Snow |
|---|---|---|---|---|---|---|---|
| 1777758740 | 6.67° C | 68% | 1011 hPa | 0 mm | - | 28 W/m² | - |
| 1777758439 | 6.67° C | 69% | 1011 hPa | 0 mm | - | 25 W/m² | - |
| 1777758139 | 6.67° C | 67% | 1011 hPa | 0 mm | - | 24 W/m² | - |
| 1777757839 | 6.67° C | 67% | 1011 hPa | 0 mm | - | 26 W/m² | - |
| 1777757539 | 6.67° C | 69% | 1011 hPa | 0 mm | - | 25 W/m² | - |
| 1777757239 | 6.67° C | 67% | 1011 hPa | 0 mm | - | 24 W/m² | - |
| 1777756940 | 6.67° C | 64% | 1011 hPa | 0 mm | - | 23 W/m² | - |
| 1777756639 | 6.67° C | 62% | 1011 hPa | 0 mm | - | 25 W/m² | - |
| 1777756340 | 6.67° C | 66% | 1011 hPa | 0 mm | - | 24 W/m² | - |
| 1777756039 | 6.67° C | 64% | 1011 hPa | 0 mm | - | 22 W/m² | - |
| 1777755740 | 6.67° C | 65% | 1011 hPa | 0 mm | - | 23 W/m² | - |
| 1777755439 | 6.11° C | 64% | 1011 hPa | 0 mm | - | 25 W/m² | - |
| 1777755139 | 6.11° C | 62% | 1011 hPa | 0 mm | - | 23 W/m² | - |
| 1777754841 | 6.67° C | 64% | 1011 hPa | 0 mm | - | 23 W/m² | - |
| 1777754539 | 6.67° C | 63% | 1011 hPa | 0 mm | - | 28 W/m² | - |
| 1777754239 | 6.67° C | 62% | 1011 hPa | 0 mm | - | 33 W/m² | - |
| 1777753940 | 6.67° C | 59% | 1011 hPa | 0 mm | - | 35 W/m² | - |
| 1777753640 | 6.67° C | 64% | 1011 hPa | 0 mm | - | 36 W/m² | - |
| 1777753339 | 6.67° C | 61% | 1011 hPa | 0 mm | - | 33 W/m² | - |
| 1777752739 | 6.67° C | 59% | 1011 hPa | 0 mm | - | 37 W/m² | - |
| 1777752440 | 6.67° C | 59% | 1011 hPa | 0 mm | - | 44 W/m² | - |
| 1777752140 | 7.22° C | 59% | 1011 hPa | 0 mm | - | 53 W/m² | - |
| 1777751839 | 7.22° C | 56% | 1011 hPa | 0 mm | - | 56 W/m² | - |
| 1777751540 | 7.78° C | 59% | 1011 hPa | 0 mm | - | 60 W/m² | - |
| 1777751240 | 8.33° C | 56% | 1011 hPa | 0 mm | - | 67 W/m² | - |
* Rain latest hour (hover to see other rain measurements)
** Current wind speed in m/s (hover to see current wind gust speed)